Showing default

WNISAT 1, 39423

Orbit data source: Space-Track

WNISAT 1, 39423 is a payload satellite owned by WNI (JP) in SSO that was launched on Thu, 21 Nov 2013 UTC via a DNEPR launch vehicle from the Orenburg, Russia (OREN). Payload-class satellites include a variety of spacecraft equipped with specific instruments for various scientific and technological missions. These include communications satellites like Starlink; space stations such as the ISS; scientific satellites like the Hubble; Earth observation satellites from companies like Planet Labs, Umbra, and HawkEye 360; GPS; miniature CubeSats for education and research; and military/defense satellites.

Loading next visibility...
Identifier
39423, 2013-066H
Orbit
SSO
Country
Flag of JPJP / JPN
Related business
Manufacturer
AXELSPACE
Mission
Operational Commercial Sci/Cal
Bus & Motor
YAIYO, Unknown motor
Mass
10.1 kg wet, 10.1 kg dry
Launch date (UTC)
2013-11-21 (12 years ago)
Launch vehicle
DNEPR
Launch site
Orenburg, Russia (OREN)
Object type
Payload
Rocket body
Debris
Shape & HBR
Box, 0.1 m
Radar Cross Section
0.109 m², Medium (>0.1 m² and < 1m²)

Expand to show TLE details & history
Last TLE update: 17 hours ago

TLE from 17 hours ago
0 WNISAT 1
1 39423U 13066H   26037.40079226  .00001433  00000-0  27089-3 0  9995
2 39423  97.6984 196.0036 0162538 283.9963  74.3212 14.57765816647675
Epoch: 2026-02-06T09:37Z
TLE epoch observation values (Epoch: 2026-02-06T09:37:08.451Z)
Latitude
-0.00003°
Longitude
-84.82081°
Altitude
674.041 km
Speed
7.535 km/s
True Right ascension
13h 04m 00s
True Declination
0° 00' 00"
Sunlit
Object was in full shadow at epoch
Visualization orbit readout
Latitude
Unknown
Longitude
Unknown
Altitude
Unknown
Speed
Unknown
Apparent Right ascension
Unknown
Apparent Declination
Unknown
Sunlit
N/A
Visualization observer readout
Local Sidereal Time
04:22:10
Azimuth
Unknown
Elevation
Unknown
Doppler factor
Unknown
Orbital elements
Apogee altitude
812.463 km
Perigee altitude
582.453 km
Semi-major axis
7,075.595 km
Eccentricity
0.01625
Inclination
97.6984°
RAAN
196.0036°
Arg. of periapsis
283.9963°
True anomaly
76.12405°
Mean anomaly
74.3212°
Eccentric anomaly
75.22167°
Mean motion
3.64669 °/min
Orbital period
98.72 mins
BSTAR
0.00027089
Loading maneuver chart data...
Computing Atmospheric mass density...
Loading historical data...
Loading historical data...
Loading historical data...
Loading historical data...
Loading historical data...
Loading historical data...
Loading historical data...

Documentation

Showing up to 5 results
|